Regional Weather Roundup
Issued by NWS

Home | Current Version | Previous Version | Graphics & Text | Print | Product List | Glossary Off
Versions: 1 2 3 4 5 6 7 8 9 10 11 12 13 14 15 16 17 18 19 20 21 22 23 24 25 26 27 28 29 30 31 32 33 34 35 36 37 38 39 40 41 42 43 44 45 46 47 48 49 50

000
ASUS45 KSLC 302110
RWRUT

UTAH REGIONAL WEATHER ROUNDUP
NATIONAL WEATHER SERVICE SALT LAKE CITY UT
200 PM MST FRI JAN 30 2015

UTZ001>011-023>025-302200-

NORTHERN UTAH

CITY           SKY/WX    TMP DP  RH WIND       PRES   REMARKS
BRIGHAM CITY   CLOUDY    47  34  60 W5        30.04F
HILL AFB       MOSUNNY   45  28  53 NW5       30.03F
LOGAN          MOSUNNY   39  33  79 CALM      30.08F
OGDEN          CLOUDY    46  36  68 W5        30.03F
PROVO AIRPORT  CLOUDY    41  36  81 NW12      30.03F
SALT LAKE CITY CLOUDY    43  35  73 W5        30.05F
VERNAL         CLOUDY    41  36  82 CALM      30.07F
WENDOVER       CLOUDY    46  34  61 N6        30.06F
HEBER CITY     CLOUDY    37  32  81 CALM      30.06S
WEST JORDAN    CLOUDY    43  36  75 CALM      30.05F

$$

UTZ012>022-026-027-302200-

SOUTHERN/CENTRAL UTAH

CITY           SKY/WX    TMP DP  RH WIND       PRES   REMARKS
BLANDING       CLOUDY    34  34  99 SE7       30.13F WCI  28
BRYCE CANYON   LGT SNOW  32  30  92 S7        29.97F WCI  26
CEDAR CITY     CLOUDY    42  37  82 SE3       29.90F
DELTA          CLOUDY    42  41  95 NW10      29.99F
HANKSVILLE     CLOUDY    43  37  81 S3        30.05F
MILFORD        LGT RAIN  41  39  93 N15       29.95F
MOAB/CYNLANDS  LGT RAIN  44  41  89 E3        30.02F
PRICE          LGT RAIN  40  35  83 CALM      30.04F
ST GEORGE      CLOUDY    48  45  87 SW6       29.92F
KANAB          CLOUDY    39  34  81 N9        29.97F WCI  33

$$

REGIONAL REPORTS     COLORADO/ARIZONA

CITY           SKY/WX    TMP DP  RH WIND       PRES   REMARKS
CRAIG, CO      CLOUDY    39  32  76 CALM      30.05F
GRAND JUNCTION CLOUDY    46  35  65 S8        30.03F
RIFLE          CLOUDY    44  30  57 CALM      30.03F
MONTROSE       CLOUDY    42  35  76 NW9       30.05F
CORTEZ         LGT RAIN  39  34  82 N5        30.06F
PAGE, AZ       NOT AVBL
GRAND CANYON   CLOUDY    39  37  92 E14       29.92F WCI  31
KINGMAN        LGT RAIN  48  46  93 N7        29.85F FOG
FLAGSTAFF      LGT RAIN  41  39  93 SW5       29.92F FOG

$$

REGIONAL REPORTS    NEVADA/IDAHO/WYOMING

CITY           SKY/WX    TMP DP  RH WIND       PRES   REMARKS
LAS VEGAS, NV  LGT RAIN  53  46  77 NW7       29.85F
ELY            CLOUDY    40  36  86 N17       29.99F WCI  31
ELKO           PTSUNNY   49  33  54 N15       30.03F
POCATELLO, ID  MOSUNNY   39  31  72 CALM      30.14F
BURLEY         CLOUDY    39  31  72 W8        30.15F WCI  33
EVANSTON, WY   CLOUDY    34  27  75 N7        30.08F WCI  28
ROCK SPRINGS   CLOUDY    36  30  79 NE7       30.09F WCI  30
KEMMERER       CLOUDY    36  27  69 NE10      30.10F WCI  28

$$



USA.gov is the U.S. government's official web portal to all federal, state and local government web resources and services.